Location: Dos Palmas
(32.4468°N, 116.8732°W)
Time: 02:28:14
(UTC+00:00)

Cosmos 2360 Rocket - Pass Details

Date: 20 June 2021
Orbit: 835 x 843 km, 71.0° (Epoch: 27 July)

Event Time Altitude Azimuth Distance (km) Brightness Sun altitude
Rises 05:20:26 0° 233° (SW) 3,383 5.3 -23.8°
Reaches altitude 10° 05:23:21 10° 247° (WSW) 2,450 4.7 -24.2°
Maximum altitude 05:27:47 24° 299° (WNW) 1,692 4.4 -24.7°
Drops below altitude 10° 05:32:14 10° 352° (N) 2,455 5.4 -25.3°
Sets 05:35:11 0° 6° (N) 3,392 6.1 -25.6°
